User: anonymous   Login
Location: Chandrammap?lem
(16.9200°N, 81.0051°E)
Time: 18:01:33
(UTC+00:00)
Language:

CZ-3A R/B - Orbit

View from above orbital plane
View from above orbital plane
View from above satellite
View from above satellite

Ground track
Ground track

The orbit data is extracted from the following two-line orbital elements,

1 33464U 08066B   24202.82391746 -.00000048  00000-0  32567-3 0  9999
2 33464  24.6800 125.6934 7155351 222.1136  52.2911  2.33649063131906
Epoch (UTC): 20 July 2024 19:46:26
Eccentricity: 0.7155351
inclination: 24.6800°
perigee height: 446 km
apogee height: 34777 km
right ascension of ascending node: 125.6934°
argument of perigee: 222.1136°
revolutions per day: 2.33649063
mean anomaly at epoch: 52.2911°
orbit number at epoch: 13190

The dashed part of the orbit path shows where the satellite is in the earth's shadow,  

DLR